Lid_Strength_Index
1 0 0 3 8 9 12 11 8 8 8 6 5 6 7 7 7 8 4 5 4 4 3 0 -0 -1 -1 -0 -0 -0 -0 -1 -1 -1 -1 -1 -1 -1 -1 -1 -1 -1 -1 -1 -1 -1 -1 -1 -1
1 1 2 5 11 13 12 9 9 7 6 5 5 5 6 8 5 4 4 5 4 4 4 3 -1 0 -1 -1 -0 -0 -0 -1 -1 -1 -1 -1 -1 -1 -1 -1 -1 -1 -1 -1 -1 -1 -1 -1 -1
1 2 6 9 11 13 12 8 7 7 5 6 6 4 5 6 3 5 5 5 4 4 4 4 -0 1 1 1 -1 -1 -0 -0 -1 -1 -1 -1 -1 -1 -1 -1 -1 -1 -1 -1 -2 -1 -1 -1 -1
3 5 6 11 12 11 10 8 7 8 7 6 5 7 4 3 3 4 4 4 5 4 4 3 1 2 2 3 4 1 -1 -1 -1 -1 -1 -1 -1 -1 -1 -1 -1 -1 -1 -1 -1 -1 -1 -1 -1
3 6 10 12 12 10 8 7 7 8 8 7 7 8 6 4 3 3 4 4 5 5 5 5 1 2 2 2 4 4 2 -1 -1 -1 -1 -1 -1 -0 -1 -1 -1 -1 -1 -1 -1 -1 -1 -1 -1
7 7 12 13 11 9 8 6 7 8 8 8 7 8 7 3 4 4 4 4 4 5 5 5 4 2 2 1 2 4 4 3 -1 -0 -0 -0 -0 -0 -0 -1 -1 -1 -1 -1 -1 -1 -1 -1 -1
9 9 12 12 11 10 8 6 8 8 9 9 6 9 7 5 4 5 6 5 5 5 5 5 5 5 3 1 1 2 4 5 2 -0 -0 0 0 0 -0 -0 -0 -1 -1 -1 -1 -1 -1 -1 -1
8 9 12 11 11 11 8 9 7 8 9 7 7 10 9 5 5 7 7 7 6 5 5 5 5 5 6 4 3 2 3 5 4 1 1 1 1 1 1 1 0 -0 -0 -0 -0 -0 -0 -1 -1
7 12 14 12 11 11 8 10 8 8 10 9 8 8 7 6 7 8 8 8 7 7 6 5 5 5 6 5 5 3 2 3 3 2 2 2 -0 -0 0 1 1 0 0 -0 -0 -0 -0 0 0
11 13 13 10 10 11 10 10 10 11 12 11 10 8 8 8 9 9 10 9 8 8 7 7 6 5 5 6 5 4 3 2 4 0 -0 -0 -0 -0 -0 1 3 1 1 0 -0 0 1 1 -1
12 14 11 11 10 11 12 12 10 12 13 11 11 10 9 9 9 9 9 9 9 8 7 7 7 6 5 5 5 4 4 3 3 4 -1 -0 -0 -0 -0 -0 1 -0 2 -0 -0 0 -0 -0 -1
15 13 13 12 11 12 12 10 12 11 12 10 9 9 9 9 9 9 9 9 9 8 8 7 7 6 6 5 5 4 5 4 4 3 3 0 0 0 0 0 0 -0 -0 0 -0 -0 -0 -0 -0
15 14 13 12 12 10 9 11 11 11 9 8 7 8 8 8 8 8 8 8 8 8 8 7 7 7 7 5 5 4 4 4 3 3 2 1 0 1 0 0 0 0 -0 0 0 0 0 0 -0
13 13 13 12 10 9 10 10 9 9 7 7 7 7 7 8 8 8 8 8 8 8 8 7 7 6 6 6 5 5 4 3 3 3 3 2 0 1 1 1 1 0 -0 0 0 0 0 0 0
12 15 13 11 9 9 8 11 11 8 7 7 6 6 6 6 6 7 7 7 7 7 7 7 7 6 6 7 6 5 4 4 4 3 3 3 2 0 1 1 1 0 0 0 0 1 1 1 1
14 13 15 11 8 8 8 14 9 7 7 7 7 6 6 6 5 5 5 6 6 7 7 6 6 6 6 6 6 6 5 4 3 2 2 2 2 0 1 1 1 0 0 0 1 2 2 3 2
12 15 14 12 8 8 9 12 9 7 7 7 7 6 6 6 5 5 4 5 5 6 7 7 6 5 6 5 5 6 5 5 4 2 2 2 2 -0 0 1 1 0 1 1 2 2 3 4 4
15 14 13 13 10 9 10 11 9 7 7 7 7 6 6 6 6 4 5 5 5 5 6 6 6 6 6 5 5 5 5 5 4 4 2 3 3 1 0 1 1 1 1 2 2 3 3 4 5
11 12 13 12 10 10 11 11 9 7 7 7 7 6 6 5 4 4 4 4 5 5 6 6 6 7 6 6 6 6 7 6 5 4 3 2 3 2 0 1 1 1 2 3 4 4 5 8 8
12 13 13 11 10 10 11 11 9 8 7 7 7 6 6 5 5 5 4 4 4 5 5 6 6 6 6 6 7 6 6 6 5 5 3 1 2 2 0 1 2 2 2 4 5 5 7 11 10
12 12 13 13 11 10 11 12 11 8 7 7 7 7 6 7 7 6 6 6 5 6 6 6 6 6 6 6 6 6 6 6 6 6 6 4 1 1 0 1 2 3 3 5 6 6 6 10 10
14 10 11 12 13 17 11 18 13 10 9 9 9 8 7 7 7 7 7 7 7 7 6 6 6 6 5 5 6 7 8 8 7 6 5 5 1 0 1 1 2 4 4 5 7 7 6 8 10
13 10 11 12 14 14 14 16 13 10 11 9 9 8 8 8 8 8 8 8 8 7 7 6 6 6 5 4 5 6 8 7 7 6 6 4 3 0 1 2 3 4 5 7 7 7 7 8 9
9 11 12 12 14 19 15 15 15 12 11 10 9 9 9 9 9 8 8 8 8 8 8 7 7 7 6 5 4 4 6 7 7 7 7 5 3 1 1 1 2 5 5 7 7 6 7 7 8
11 13 18 19 19 19 13 16 14 11 9 10 11 10 9 10 10 10 10 10 9 9 9 9 8 8 7 6 5 4 4 5 6 7 6 6 5 2 2 2 2 5 5 6 7 7 7 7 8
12 13 18 23 21 19 14 18 14 10 9 10 9 10 10 10 11 11 10 10 10 10 9 9 9 9 8 8 7 5 4 4 5 6 6 5 4 2 1 1 3 5 6 7 6 6 7 7 8
12 15 11 17 16 19 16 13 11 10 11 10 11 11 11 11 12 12 11 11 11 11 11 10 10 9 9 9 7 6 4 2 4 5 6 6 4 1 2 2 4 6 7 7 7 8 8 8 9
11 10 16 15 21 22 17 16 15 12 12 12 12 12 12 12 13 13 13 12 12 11 11 11 11 10 9 8 8 7 5 2 2 4 5 6 3 1 2 4 4 6 7 7 7 8 8 8 9
12 13 13 13 15 20 21 19 10 13 13 13 13 13 13 14 14 14 14 13 13 13 12 12 11 11 10 9 8 7 6 4 2 4 4 5 2 2 2 3 6 9 10 8 8 8 9 9 9
12 13 13 17 18 16 18 19 11 12 11 11 13 14 14 14 14 14 14 14 14 14 14 14 13 12 11 10 9 8 6 4 3 3 4 4 2 2 3 5 7 8 8 8 8 10 9 11 11